1536775200.49,42492,24.25,74820.0,7.75,-15.07,-15.07,0,*71
1536775201.73,42493,24.25,74824.0,7.73,-14.97,-15.11,0,*79
1536775202.98,42494,24.25,74824.8,7.73,-14.83,-15.07,0,*7C
1536775204.22,42495,24.25,74820.0,7.73,-14.97,-15.07,0,*78
1536775205.47,42496,24.25,74824.5,7.73,-15.15,-15.39,0,*7D
1536775206.7,42497,24.25,74822.0,7.73,-15.07,-15.25,0,*72
1536775207.92,42498,24.25,74822.8,7.73,-15.07,-15.11,0,*7A
1536775209.13,42499,24.25,74826.0,7.75,-15.01,-15.07,0,*7C
1536775210.38,42500,24.25,74820.5,7.73,-15.15,-15.43,0,*7E
1536775211.61,42501,24.25,74824.8,7.77,-15.11,-15.25,0,*7F
1536775212.82,42502,24.25,74822.5,7.75,-15.15,-15.29,0,*76
1536775214.04,42503,24.25,74826.8,7.73,-15.11,-15.29,0,*75
1536775215.28,42504,24.25,74822.5,7.75,-15.01,-15.21,0,*7D
1536775216.51,42505,24.25,74826.3,7.73,-15.15,-15.29,0,*77
1536775217.73,42506,24.25,74822.8,7.75,-15.07,-15.35,0,*7C
1536775218.92,42507,24.25,74822.5,7.75,-15.07,-15.07,0,*7C
1536775220.14,42508,24.25,74824.3,7.75,-15.11,-15.35,0,*75
1536775221.35,42509,24.25,74822.5,7.75,-14.93,-15.07,0,*7E
1536775222.59,42510,24.25,74822.0,7.75,-15.01,-15.21,0,*78
1536775223.8,42511,24.25,74820.5,7.75,-15.25,-15.49,0,*71
1536775225.0,42512,24.25,74820.8,7.75,-15.25,-15.49,0,*72
1536775226.2,42513,24.25,74822.3,7.75,-15.07,-15.25,0,*79
1536775227.4,42514,24.25,74822.0,7.75,-15.11,-15.25,0,*79
1536775228.68,42515,24.25,74826.5,7.77,-15.21,-15.39,0,*74
1536775229.91,42516,24.25,74824.0,7.77,-15.07,-15.25,0,*7E
1536775231.18,42517,24.25,74822.0,7.77,-15.01,-15.21,0,*7D
1536775232.42,42518,24.25,74822.8,7.77,-15.07,-15.21,0,*74
1536775233.64,42519,24.25,74822.5,7.79,-15.07,-15.35,0,*7E
1536775234.84,42520,24.25,74826.5,7.75,-15.07,-15.25,0,*79
1536775236.1,42521,24.25,74826.0,7.77,-15.35,-15.49,0,*71
1536775237.36,42522,24.25,74820.8,7.77,-15.39,-15.63,0,*76
1536775238.59,42523,24.25,74826.0,7.77,-15.25,-15.49,0,*72
1536775239.84,42524,24.25,74820.3,7.77,-15.11,-15.39,0,*75
1536775241.1,42525,24.25,74820.0,7.77,-15.25,-15.39,0,*73
1536775242.33,42526,24.25,74822.3,7.75,-15.25,-15.39,0,*72
1536775243.56,42527,24.25,74824.3,7.75,-15.35,-15.53,0,*7E
1536775244.83,42528,24.25,74820.5,7.77,-15.21,-15.39,0,*7A
1536775246.09,42529,24.25,74824.5,7.77,-15.35,-15.53,0,*72
1536775247.32,42530,24.25,74820.5,7.79,-15.35,-15.49,0,*7F
1536775248.54,42531,24.25,74826.3,7.75,-15.39,-15.63,0,*76
1536775249.79,42532,24.25,74820.8,7.77,-15.39,-15.63,0,*77
1536775251.04,42533,24.25,74822.8,7.79,-15.21,-15.39,0,*7E
1536775252.29,42534,24.25,74822.0,7.77,-15.11,-15.39,0,*74
1536775253.52,42535,24.25,74824.0,7.77,-15.25,-15.49,0,*75
1536775254.78,42536,24.25,74822.5,7.77,-15.35,-15.49,0,*77
1536775256.02,42537,24.25,74826.5,7.77,-15.25,-15.49,0,*77
1536775257.27,42538,24.25,74826.0,7.77,-15.11,-15.35,0,*74
1536775258.5,42539,24.25,74822.3,7.77,-15.07,-15.25,0,*73
1536775259.76,42540,24.25,74826.3,7.77,-15.39,-15.49,0,*7A
1536775261.01,42541,24.25,74826.5,7.77,-15.35,-15.53,0,*7C
1536775262.24,42542,24.25,74826.5,7.77,-15.11,-15.25,0,*78
1536775263.52,42543,24.25,74822.0,7.77,-15.21,-15.39,0,*77
1536775264.75,42544,24.25,74826.3,7.77,-15.07,-15.25,0,*79
1536775265.98,42545,24.25,74822.5,7.77,-15.11,-15.25,0,*7F
1536775267.19,42546,24.25,74820.8,7.79,-15.01,-15.15,0,*70
1536775268.44,42547,24.25,74824.3,7.77,-15.11,-15.21,0,*79
1536775269.67,42548,24.25,74820.8,7.77,-15.07,-15.25,0,*75
1536775270.89,42549,24.25,74826.3,7.79,-14.89,-15.01,0,*7B
1536775272.13,42550,24.25,74824.0,7.79,-15.01,-15.21,0,*70
1536775273.34,42551,24.25,74822.8,7.79,-15.15,-15.29,0,*7C
1536775274.54,42552,24.25,74820.3,7.79,-15.07,-15.29,0,*7C
1536775275.77,42553,24.25,74822.0,7.79,-15.35,-15.49,0,*7A
1536775277.02,42554,24.25,74820.5,7.77,-15.07,-15.21,0,*7C
1536775278.22,42555,24.25,74826.0,7.79,-15.07,-15.29,0,*7B
1536775279.47,42556,24.25,74824.5,7.79,-15.35,-15.57,0,*70
1536775280.69,42557,24.25,74824.3,7.79,-15.35,-15.63,0,*76
1536775281.89,42558,24.25,74824.3,7.79,-15.15,-15.29,0,*75
1536775283.11,42559,24.25,74826.0,7.79,-14.97,-15.15,0,*70
1536775284.34,42560,24.25,74826.8,7.79,-14.83,-14.89,0,*7B
1536775285.56,42561,24.25,74822.3,7.79,-15.07,-15.21,0,*74
1536775286.79,42562,24.25,74824.8,7.81,-15.01,-15.25,0,*72
1536775288.01,42563,24.25,74822.5,7.81,-14.93,-15.11,0,*7E
1536775289.27,42564,24.25,74822.5,7.83,-15.15,-15.39,0,*7E
1536775290.5,42565,24.25,74820.0,7.81,-15.29,-15.43,0,*7F
1536775291.76,42566,24.25,74820.0,7.81,-14.83,-14.97,0,*75
1536775293.02,42567,24.25,74824.5,7.81,-14.79,-14.93,0,*75
1536775294.23,42568,24.25,74824.8,7.81,-15.15,-15.25,0,*7D
1536775295.46,42569,24.25,74820.0,7.81,-15.29,-15.39,0,*7E
1536775296.71,42570,24.25,74826.5,7.83,-14.97,-15.11,0,*7A
1536775297.93,42571,24.25,74822.8,7.81,-14.97,-15.15,0,*7D
1536775299.17,42572,24.25,74822.0,7.83,-15.01,-15.15,0,*72
1536775300.42,42573,24.25,74826.8,7.83,-15.01,-15.25,0,*70
1536775301.66,42574,24.25,74822.0,7.83,-15.15,-15.29,0,*7E
1536775302.89,42575,24.25,74826.0,7.83,-15.29,-15.53,0,*7D
1536775304.12,42576,24.25,74822.3,7.81,-15.29,-15.43,0,*7D
1536775305.36,42577,24.25,74824.5,7.81,-15.29,-15.43,0,*7C
1536775306.59,42578,24.25,74822.0,7.81,-15.29,-15.43,0,*73
1536775307.85,42579,24.25,74824.0,7.83,-15.25,-15.39,0,*71
1536775309.1,42580,24.25,74820.8,7.83,-15.01,-15.25,0,*7C
1536775310.32,42581,24.25,74824.5,7.81,-15.01,-15.15,0,*7C
1536775311.57,42582,24.25,74822.3,7.83,-15.11,-15.39,0,*72
1536775312.81,42583,24.25,74822.0,7.83,-14.93,-15.11,0,*72
1536775314.06,42584,24.25,74820.8,7.83,-15.01,-15.15,0,*7B
1536775315.3,42585,24.25,74824.8,7.83,-14.97,-15.11,0,*70
1536775316.53,42586,24.25,74826.3,7.85,-14.89,-14.93,0,*71
1536775317.78,42587,24.25,74824.5,7.85,-14.97,-15.21,0,*77
1536775319.01,42588,24.25,74824.0,7.83,-15.15,-15.25,0,*71
1536775320.26,42589,24.25,74822.0,7.85,-14.97,-15.21,0,*79
1536775321.48,42590,24.25,74824.8,7.87,-15.07,-15.11,0,*78
1536775322.68,42591,24.25,74824.8,7.85,-15.07,-15.11,0,*7B
1536775323.96,42592,24.25,74822.8,7.87,-14.93,-15.21,0,*75
1536775325.21,42593,24.25,74822.0,7.85,-14.93,-14.93,0,*7E
1536775326.44,42594,24.25,74824.8,7.87,-14.89,-15.07,0,*7C
1536775327.69,42595,24.25,74826.3,7.85,-14.93,-14.93,0,*78
1536775328.93,42596,24.25,74826.0,7.85,-14.97,-15.21,0,*77
1536775330.17,42597,24.25,74822.0,7.87,-15.07,-15.25,0,*78
1536775331.38,42598,24.25,74824.0,7.89,-15.07,-15.29,0,*75
1536775332.61,42599,24.25,74820.3,7.87,-14.89,-15.07,0,*71
1536775333.86,42600,24.25,74824.0,7.87,-14.93,-15.11,0,*7E
1536775335.11,42601,24.25,74826.5,7.87,-14.93,-15.11,0,*7F
1536775336.36,42602,24.25,74824.5,7.87,-14.97,-15.11,0,*78
1536775337.62,42603,24.25,74822.5,7.87,-14.97,-15.25,0,*7E
1536775338.87,42604,24.25,74824.5,7.87,-15.07,-15.21,0,*75
1536775340.12,42605,24.25,74822.5,7.87,-14.97,-15.07,0,*78
1536775341.37,42606,24.25,74822.0,7.87,-14.79,-15.07,0,*7B
1536775342.6,42607,24.25,74824.8,7.89,-14.75,-14.89,0,*7F
1536775343.86,42608,24.25,74822.0,7.93,-14.79,-14.83,0,*7D
1536775345.08,42609,24.25,74822.5,7.93,-14.97,-15.11,0,*76
1536775346.31,42610,24.25,74822.5,7.89,-15.01,-15.29,0,*70
1536775347.55,42611,24.25,74820.3,7.89,-15.01,-15.21,0,*79
1536775348.78,42612,24.25,74824.0,7.89,-15.07,-15.21,0,*7C
1536775350.03,42613,24.25,74824.3,7.89,-15.21,-15.43,0,*7D
1536775351.26,42614,24.25,74820.0,7.89,-15.15,-15.35,0,*7C
1536775352.51,42615,24.25,74820.8,7.89,-15.21,-15.43,0,*7B
1536775353.74,42616,24.25,74822.5,7.89,-15.15,-15.43,0,*7F
1536775354.95,42617,24.25,74824.3,7.89,-15.15,-15.29,0,*72
1536775356.2,42618,24.25,74824.8,7.89,-15.21,-15.43,0,*76
1536775357.44,42619,24.25,74822.3,7.93,-15.15,-15.43,0,*7B
1536775358.67,42620,24.25,74822.3,7.89,-15.21,-15.29,0,*71
1536775359.89,42621,24.25,74822.5,7.89,-15.15,-15.21,0,*7F
1536775361.14,42622,24.25,74822.0,7.89,-15.01,-15.21,0,*79
1536775362.36,42623,24.25,74820.3,7.89,-15.07,-15.21,0,*7E
1536775363.59,42624,24.25,74822.0,7.89,-15.01,-15.15,0,*78
1536775364.79,42625,24.25,74824.5,7.93,-15.11,-15.25,0,*70
1536775366.01,42626,24.25,74820.0,7.93,-14.97,-15.11,0,*7B
1536775367.24,42627,24.25,74820.0,7.89,-15.15,-15.35,0,*7C
1536775368.44,42628,24.25,74826.5,7.93,-15.11,-15.15,0,*7E
1536775369.67,42629,24.25,74822.0,7.93,-14.97,-15.15,0,*70
1536775370.87,42630,24.25,74824.0,7.93,-15.11,-15.25,0,*74
1536775372.08,42631,24.25,74824.8,7.89,-14.89,-15.07,0,*7E
1536775373.31,42632,24.25,74820.8,7.93,-15.01,-15.25,0,*77
1536775374.54,42633,24.25,74822.5,7.95,-15.15,-15.25,0,*75
1536775375.75,42634,24.25,74826.5,7.93,-14.89,-15.11,0,*77
1536775376.97,42635,24.25,74824.0,7.95,-14.89,-15.11,0,*70
1536775378.22,42636,24.25,74824.5,7.95,-15.01,-15.15,0,*76
1536775379.47,42637,24.25,74824.3,7.95,-15.01,-15.29,0,*78
1536775380.71,42638,24.25,74824.0,7.95,-15.15,-15.25,0,*7E
1536775381.97,42639,24.25,74824.3,7.95,-15.25,-15.39,0,*71
1536775383.23,42640,24.25,74826.5,7.95,-15.15,-15.39,0,*7C
1536775384.47,42641,24.25,74824.5,7.93,-14.97,-15.01,0,*7B
1536775385.73,42642,24.25,74820.8,7.93,-14.79,-14.83,0,*73
1536775386.98,42643,24.25,74824.3,7.95,-15.01,-15.25,0,*77
1536775388.21,42644,24.25,74820.8,7.95,-15.11,-15.29,0,*7D
1536775389.44,42645,24.25,74820.8,7.95,-15.15,-15.29,0,*78
1536775390.67,42646,24.25,74822.5,7.95,-15.29,-15.67,0,*7E
1536775391.92,42647,24.25,74822.3,7.95,-15.29,-15.57,0,*7C
1536775393.18,42648,24.25,74822.0,7.95,-15.25,-15.43,0,*7A
1536775394.42,42649,24.25,74826.3,7.93,-15.15,-15.39,0,*73
1536775395.64,42650,24.25,74820.8,7.93,-15.01,-15.15,0,*70
1536775396.87,42651,24.25,74822.3,7.93,-15.15,-15.39,0,*7A
1536775398.11,42652,24.25,74824.3,7.93,-15.29,-15.57,0,*7E
1536775399.34,42653,24.25,74820.3,7.93,-15.29,-15.57,0,*7F
1536775400.57,42654,24.25,74822.8,7.95,-15.29,-15.53,0,*7A
1536775401.77,42655,24.25,74822.3,7.93,-15.29,-15.67,0,*7A
1536775403.01,42656,24.25,74826.0,7.93,-15.25,-15.43,0,*73
1536775404.24,42657,24.19,74820.8,7.93,-15.25,-15.43,0,*72
1536775405.47,42658,24.25,74826.0,7.89,-15.29,-15.57,0,*7F
1536775406.68,42659,24.25,74820.8,7.93,-15.29,-15.53,0,*71
1536775407.92,42660,24.25,74822.3,7.93,-15.25,-15.43,0,*76
1536775409.13,42661,24.25,74824.8,7.93,-15.15,-15.15,0,*77
1536775410.33,42662,24.25,74824.8,7.93,-15.11,-15.25,0,*73
1536775411.57,42663,24.25,74822.5,7.93,-15.15,-15.43,0,*76
1536775412.8,42664,24.25,74822.5,7.93,-15.15,-15.43,0,*71
1536775414.03,42665,24.25,74822.8,7.93,-15.15,-15.39,0,*7D
1536775415.27,42666,24.25,74824.3,7.93,-15.15,-15.39,0,*7E
1536775416.5,42667,24.25,74824.3,7.93,-15.01,-15.25,0,*77
1536775417.72,42668,24.25,74824.0,7.93,-14.97,-15.11,0,*71
1536775418.96,42669,24.25,74826.0,7.93,-15.15,-15.39,0,*71
1536775420.2,42670,24.25,74824.8,7.93,-14.97,-15.01,0,*79
1536775421.43,42671,24.25,74820.8,7.93,-15.01,-15.25,0,*70
1536775422.68,42672,24.25,74824.5,7.93,-14.97,-15.01,0,*7B
1536775423.9,42673,24.25,74826.5,7.93,-14.97,-15.11,0,*7B
1536775425.13,42674,24.25,74824.8,7.93,-15.01,-15.25,0,*75
1536775426.37,42675,24.25,74826.0,7.95,-15.01,-15.15,0,*71
1536775427.63,42676,24.25,74824.8,7.97,-14.79,-14.97,0,*75
1536775428.91,42677,24.25,74824.8,7.95,-14.79,-14.97,0,*76
1536775430.16,42678,24.25,74824.3,7.97,-14.79,-14.97,0,*7B
1536775431.41,42679,24.25,74824.8,7.95,-14.65,-14.79,0,*75
1536775432.66,42680,24.19,74820.8,7.97,-14.75,-14.93,0,*74
1536775433.91,42681,24.25,74824.3,7.97,-14.97,-15.21,0,*71
1536775435.13,42682,24.25,74826.5,7.97,-15.11,-15.35,0,*78
1536775436.37,42683,24.19,74822.3,7.99,-15.11,-15.35,0,*77
1536775437.6,42684,24.25,74824.0,7.95,-15.11,-15.25,0,*7D
1536775438.83,42685,24.25,74824.0,7.97,-15.07,-15.35,0,*78
1536775440.06,42686,24.25,74826.0,7.99,-15.11,-15.25,0,*73
1536775441.28,42687,24.25,74824.0,7.97,-14.93,-15.11,0,*70
1536775442.5,42688,24.25,74822.8,7.97,-15.11,-15.21,0,*77
1536775443.71,42689,24.25,74822.0,7.97,-15.11,-15.25,0,*72
1536775444.93,42690,24.25,74826.0,8.01,-15.15,-15.35,0,*7F
1536775446.18,42691,24.25,74822.3,7.99,-15.11,-15.39,0,*78
1536775447.4,42692,24.25,74824.5,7.97,-15.25,-15.49,0,*75
1536775448.63,42693,24.25,74822.8,8.01,-15.15,-15.43,0,*7D
1536775449.86,42694,24.19,74822.5,7.99,-15.25,-15.49,0,*7D
1536775451.13,42695,24.25,74822.8,7.99,-15.21,-15.39,0,*7F
1536775452.38,42696,24.25,74826.0,7.97,-15.21,-15.35,0,*7E
1536775453.6,42697,24.25,74826.0,7.97,-14.93,-15.11,0,*71
1536775454.85,42698,24.25,74826.5,7.97,-14.97,-15.21,0,*79
1536775456.08,42699,24.25,74826.3,7.97,-15.11,-15.39,0,*7E
1536775457.3,42700,24.25,74826.0,7.97,-15.07,-15.21,0,*71
1536775458.55,42701,24.25,74824.0,7.97,-14.97,-15.21,0,*78
1536775459.81,42702,24.25,74826.0,7.97,-14.83,-14.97,0,*72
1536775461.03,42703,24.25,74824.0,7.97,-15.11,-15.35,0,*70
1536775462.25,42704,24.19,74820.8,7.97,-15.11,-15.35,0,*77
1536775463.48,42705,24.25,74824.5,7.97,-15.21,-15.49,0,*7E
1536775464.71,42706,24.25,74822.8,7.99,-15.25,-15.49,0,*77
1536775465.94,42707,24.25,74824.3,7.97,-15.07,-15.35,0,*73
1536775467.16,42708,24.19,74822.5,7.97,-14.93,-15.07,0,*71
1536775468.41,42709,24.25,74824.3,7.97,-14.97,-15.21,0,*70
1536775469.66,42710,24.25,74824.3,7.97,-14.79,-14.93,0,*70
1536775470.89,42711,24.25,74826.0,7.97,-14.61,-14.79,0,*7C
1536775472.13,42712,24.25,74822.5,7.99,-14.93,-15.07,0,*74
1536775473.36,42713,24.25,74826.0,8.01,-14.79,-15.07,0,*7F
1536775474.61,42714,24.25,74826.5,7.99,-14.83,-15.11,0,*74
1536775475.85,42715,24.25,74824.8,7.99,-14.97,-15.07,0,*77
1536775477.07,42716,24.19,74822.5,8.01,-15.01,-15.07,0,*74
1536775478.34,42717,24.25,74824.0,7.99,-14.97,-15.21,0,*71
1536775479.56,42718,24.19,74820.0,8.01,-14.61,-14.75,0,*79
1536775480.79,42719,24.25,74824.3,8.01,-14.75,-14.89,0,*7E
1536775482.01,42720,24.25,74822.0,8.01,-14.75,-14.89,0,*74
1536775483.24,42721,24.25,74824.8,8.01,-14.61,-14.75,0,*73
1536775484.49,42722,24.25,74824.3,8.03,-14.55,-14.69,0,*78
1536775485.71,42723,24.25,74826.5,8.03,-14.89,-15.11,0,*76
1536775486.94,42724,24.25,74824.3,8.03,-14.89,-14.89,0,*71
1536775488.17,42725,24.25,74826.8,8.05,-14.75,-14.89,0,*75
1536775489.43,42726,24.19,74822.3,8.03,-14.83,-14.89,0,*79
1536775490.64,42727,24.25,74824.3,8.03,-14.69,-14.69,0,*72
1536775491.86,42728,24.25,74826.8,8.05,-14.65,-14.83,0,*73
1536775493.11,42729,24.19,74820.8,8.03,-15.01,-15.25,0,*7A
1536775494.31,42730,24.25,74824.0,8.05,-15.11,-15.25,0,*75
1536775495.56,42731,24.25,74826.0,8.03,-15.01,-15.15,0,*70
1536775496.78,42732,24.25,74824.8,8.05,-15.01,-15.25,0,*76
1536775498.0,42733,24.19,74822.3,8.05,-15.01,-15.15,0,*74
1536775499.21,42734,24.25,74824.5,8.05,-14.97,-15.11,0,*79
1536775500.46,42735,24.25,74826.0,8.05,-14.83,-15.01,0,*7C
1536775501.71,42736,24.19,74822.3,8.03,-14.97,-15.11,0,*7D
1536775502.96,42737,24.19,74822.5,8.05,-14.83,-15.01,0,*7E
1536775504.21,42738,24.19,74820.0,8.05,-14.83,-14.97,0,*7F
1536775505.49,42739,24.25,74826.0,8.03,-14.75,-14.97,0,*71
1536775506.74,42740,24.25,74824.8,8.03,-14.69,-14.97,0,*72
1536775507.96,42741,24.25,74824.5,8.05,-15.01,-15.25,0,*72
1536775509.21,42742,24.25,74826.5,8.03,-15.01,-15.25,0,*77
1536775510.44,42743,24.25,74824.8,8.05,-15.25,-15.43,0,*76
1536775511.67,42744,24.25,74828.3,8.03,-15.11,-15.25,0,*70
1536775512.89,42745,24.25,74826.8,8.05,-15.15,-15.43,0,*73
1536775514.11,42746,24.25,74826.8,8.05,-15.01,-15.15,0,*76
1536775515.35,42747,24.19,74822.3,8.03,-14.97,-15.15,0,*7F
1536775516.57,42748,24.19,74824.5,8.05,-14.97,-15.15,0,*76
1536775517.77,42749,24.25,74826.5,8.05,-15.11,-15.29,0,*77
1536775519.0,42750,24.25,74824.8,8.03,-15.29,-15.53,0,*7F
1536775520.25,42751,24.19,74824.5,8.05,-15.39,-15.57,0,*7D
1536775521.5,42752,24.19,74820.3,8.07,-15.21,-15.49,0,*7A
1536775522.72,42753,24.25,74824.3,8.05,-15.11,-15.39,0,*7D
1536775523.92,42754,24.25,74826.0,8.05,-15.15,-15.53,0,*72
1536775525.16,42755,24.25,74824.3,8.03,-15.29,-15.53,0,*7A
1536775526.41,42756,24.19,74822.5,8.03,-15.29,-15.57,0,*7D
1536775527.65,42757,24.25,74826.8,8.03,-15.25,-15.53,0,*74
1536775528.9,42758,24.25,74824.0,8.03,-15.25,-15.43,0,*7A
1536775530.16,42759,24.25,74826.8,8.03,-15.15,-15.43,0,*78
1536775531.42,42760,24.19,74824.8,8.03,-15.29,-15.43,0,*7D
1536775532.68,42761,24.25,74824.8,8.03,-15.15,-15.39,0,*7E
1536775533.87,42762,24.25,74824.0,8.05,-14.89,-15.11,0,*75
1536775535.1,42763,24.19,74824.5,8.03,-15.11,-15.25,0,*75
1536775536.34,42764,24.19,74826.3,8.03,-15.15,-15.53,0,*77
1536775537.54,42765,24.25,74826.3,8.05,-15.29,-15.53,0,*7F
1536775538.77,42766,24.19,74826.3,8.05,-15.15,-15.43,0,*72
1536775540.0,42767,24.19,74824.0,8.03,-15.11,-15.25,0,*71
1536775541.23,42768,24.19,74826.0,8.03,-15.25,-15.53,0,*78
1536775542.45,42769,24.19,74824.0,8.05,-15.11,-15.39,0,*74
1536775543.71,42770,24.25,74826.5,8.03,-15.25,-15.43,0,*70
1536775544.94,42771,24.19,74826.0,8.03,-15.11,-15.29,0,*7A
1536775546.2,42772,24.19,74826.0,8.03,-15.15,-15.39,0,*7C
1536775547.4,42773,24.19,74822.0,8.05,-15.11,-15.29,0,*7E
1536775548.64,42774,24.19,74824.5,8.03,-14.97,-15.11,0,*7B
1536775549.92,42775,24.25,74824.0,8.03,-14.83,-15.01,0,*7E
1536775551.15,42776,24.25,74826.3,8.05,-15.01,-15.25,0,*76
1536775552.4,42777,24.19,74822.3,8.03,-15.15,-15.43,0,*74
1536775553.65,42778,24.19,74822.0,8.03,-15.11,-15.39,0,*72
1536775554.91,42779,24.19,74824.5,8.03,-15.15,-15.43,0,*7A
1536775556.17,42780,24.19,74826.0,8.03,-15.15,-15.43,0,*7C
1536775557.42,42781,24.19,74820.3,8.03,-15.11,-15.39,0,*74
1536775558.65,42782,24.19,74824.5,8.03,-15.29,-15.53,0,*70
1536775559.88,42783,24.19,74822.8,8.03,-15.11,-15.25,0,*7B
1536775561.14,42784,24.19,74822.0,8.03,-15.11,-15.39,0,*71
1536775562.39,42785,24.19,74820.8,8.03,-15.29,-15.57,0,*73
1536775563.64,42786,24.19,74820.8,8.03,-15.11,-15.39,0,*73
1536775564.89,42787,24.19,74824.5,8.03,-14.97,-15.15,0,*73
1536775566.1,42788,24.19,74824.3,8.05,-14.97,-15.11,0,*7E
1536775567.3,42789,24.25,74826.0,8.05,-14.89,-15.11,0,*70
1536775568.53,42790,24.19,74824.0,8.05,-14.89,-14.97,0,*77
1536775569.75,42791,24.19,74822.5,8.05,-15.01,-15.25,0,*7F
1536775570.98,42792,24.19,74826.5,8.03,-15.11,-15.29,0,*77
1536775572.19,42793,24.25,74826.0,8.05,-14.97,-15.11,0,*74
1536775573.41,42794,24.19,74826.0,8.05,-14.97,-15.11,0,*73
1536775574.62,42795,24.19,74826.3,8.05,-15.01,-15.11,0,*7C
1536775575.88,42796,24.19,74824.0,8.03,-15.11,-15.39,0,*72
1536775577.08,42797,24.19,74820.0,8.05,-15.29,-15.53,0,*72
1536775578.3,42798,24.19,74824.0,8.05,-15.39,-15.63,0,*7F
1536775579.53,42799,24.19,74824.0,8.03,-15.53,-15.71,0,*77
1536775580.76,42800,24.25,74826.8,8.05,-15.15,-15.43,0,*7D
1536775581.99,42801,24.19,74824.8,8.03,-15.11,-15.29,0,*72
1536775583.19,42802,24.19,74824.0,8.05,-15.25,-15.53,0,*7D
1536775584.45,42803,24.19,74824.0,8.03,-15.15,-15.43,0,*78
1536775585.65,42804,24.19,74826.0,8.05,-15.29,-15.53,0,*77
1536775586.86,42805,24.19,74824.3,8.05,-15.25,-15.53,0,*7A
1536775588.08,42806,24.19,74826.8,8.05,-15.15,-15.43,0,*7B
1536775589.34,42807,24.19,74820.5,8.03,-15.01,-15.25,0,*79
1536775590.54,42808,24.19,74824.8,8.05,-15.11,-15.29,0,*7D
1536775591.76,42809,24.19,74824.5,8.05,-15.01,-15.25,0,*71
1536775592.96,42810,24.19,74824.5,8.05,-15.11,-15.29,0,*74
1536775594.2,42811,24.19,74820.0,8.03,-14.97,-15.15,0,*73
1536775595.45,42812,24.19,74822.3,8.03,-14.97,-15.11,0,*74
1536775596.67,42813,24.19,74826.0,8.05,-14.89,-15.01,0,*7D
1536775597.89,42814,24.19,74826.0,8.05,-14.97,-15.11,0,*74
1536775599.13,42815,24.19,74824.0,8.05,-14.83,-15.01,0,*71
1536775600.36,42816,24.25,74826.5,8.05,-15.01,-15.29,0,*73
1536775601.57,42817,24.19,74824.0,8.05,-14.97,-15.15,0,*73
1536775602.79,42818,24.19,74826.0,8.05,-14.97,-15.11,0,*78
1536775604.03,42819,24.19,74822.5,8.07,-14.97,-15.11,0,*7B
1536775605.27,42820,24.19,74824.3,8.07,-14.97,-15.25,0,*76
1536775606.47,42821,24.25,74824.8,8.05,-15.11,-15.29,0,*76
1536775607.67,42822,24.19,74826.3,8.05,-15.11,-15.29,0,*75
1536775608.9,42823,24.19,74826.0,8.07,-15.07,-15.25,0,*7D
1536775610.12,42824,24.19,74826.0,8.07,-15.07,-15.11,0,*7D
1536775611.36,42825,24.19,74826.0,8.07,-15.07,-15.35,0,*7A
1536775612.6,42826,24.19,74824.3,8.07,-15.07,-15.35,0,*79
1536775613.83,42827,24.19,74826.3,8.07,-15.07,-15.25,0,*79
1536775615.07,42828,24.19,74824.3,8.07,-14.93,-15.11,0,*7D
1536775616.31,42829,24.19,74824.3,8.07,-14.97,-15.11,0,*78
1536775617.51,42830,24.19,74822.3,8.09,-14.89,-15.07,0,*76
1536775618.75,42831,24.19,74824.3,8.07,-14.93,-15.07,0,*72
1536775619.97,42832,24.19,74822.0,8.09,-14.93,-15.07,0,*7F
1536775621.21,42833,24.19,74822.8,8.07,-14.93,-15.07,0,*70
1536775622.41,42834,24.19,74820.0,8.09,-14.89,-15.15,0,*71
1536775623.65,42835,24.19,74826.3,8.07,-15.11,-15.35,0,*7C
1536775624.89,42836,24.19,74826.5,8.07,-15.07,-15.35,0,*78
1536775626.12,42837,24.19,74822.8,8.07,-15.07,-15.25,0,*78
1536775627.34,42838,24.19,74826.8,8.09,-15.01,-15.29,0,*73
1536775628.56,42839,24.19,74824.0,8.09,-15.01,-15.15,0,*7D
1536775629.8,42840,24.19,74824.3,8.07,-15.07,-15.21,0,*7C
1536775631.02,42841,24.19,74820.8,8.09,-15.01,-15.07,0,*71
1536775632.27,42842,24.19,74824.3,8.09,-14.75,-14.93,0,*7C
1536775633.51,42843,24.19,74824.8,8.07,-14.93,-15.11,0,*70
1536775634.73,42844,24.19,74822.8,8.09,-14.93,-15.07,0,*7E
1536775635.95,42845,24.19,74820.8,8.09,-14.93,-15.15,0,*7C
1536775637.17,42846,24.19,74824.0,8.07,-15.07,-15.11,0,*79
1536775638.39,42847,24.19,74822.5,8.09,-14.93,-15.15,0,*7E
1536775639.66,42848,24.19,74820.5,8.07,-14.93,-15.21,0,*78
1536775640.9,42849,24.19,74824.5,8.11,-14.93,-15.07,0,*7A
1536775642.14,42850,24.19,74824.0,8.11,-14.93,-15.15,0,*71
1536775643.39,42851,24.19,74824.8,8.11,-14.65,-14.79,0,*72
1536775644.64,42852,24.19,74824.0,8.11,-14.93,-15.15,0,*73
1536775645.86,42853,24.19,74822.3,8.09,-15.01,-15.29,0,*7E
1536775647.1,42854,24.19,74824.8,8.09,-15.01,-15.21,0,*71
1536775648.3,42855,24.19,74822.5,8.09,-14.89,-15.07,0,*75
1536775649.53,42856,24.19,74822.5,8.09,-14.93,-15.15,0,*7E
1536775650.79,42857,24.19,74824.5,8.11,-15.01,-15.21,0,*7B
1536775652.05,42858,24.19,74824.8,8.11,-15.01,-15.21,0,*74
1536775653.27,42859,24.19,74822.5,8.15,-14.93,-15.07,0,*7F
1536775654.51,42860,24.19,74824.8,8.11,-14.93,-15.07,0,*71
1536775655.76,42861,24.19,74826.0,8.11,-14.93,-15.07,0,*70
1536775657.01,42862,24.19,74824.3,8.11,-14.93,-15.29,0,*7F
1536775658.23,42863,24.19,74824.3,8.15,-14.97,-15.25,0,*72
1536775659.5,42864,24.19,74826.0,8.11,-15.01,-15.21,0,*7B
1536775660.76,42865,24.19,74824.5,8.11,-14.93,-15.21,0,*70
1536775662.03,42866,24.19,74822.8,8.11,-15.01,-15.21,0,*79
1536775663.26,42867,24.19,74826.5,8.11,-15.07,-15.29,0,*76
1536775664.51,42868,24.19,74824.0,8.11,-15.15,-15.43,0,*76
1536775665.76,42869,24.19,74824.3,8.11,-15.07,-15.35,0,*75
1536775667.02,42870,24.19,74824.0,8.11,-15.01,-15.21,0,*7E
1536775668.22,42871,24.19,74824.8,8.15,-15.11,-15.25,0,*7E
1536775669.47,42872,24.19,74824.3,8.11,-15.15,-15.35,0,*7C
1536775670.69,42873,24.19,74824.5,8.15,-15.01,-15.25,0,*7D
1536775671.91,42874,24.19,74826.8,8.15,-15.01,-15.25,0,*7A
1536775673.13,42875,24.19,74826.5,8.15,-15.01,-15.29,0,*77
1536775674.38,42876,24.19,74826.5,8.11,-15.15,-15.35,0,*78
1536775675.6,42877,24.19,74824.8,8.11,-14.89,-15.07,0,*7C
1536775676.86,42878,24.19,74822.3,8.15,-14.83,-14.97,0,*75
1536775678.13,42879,24.19,74824.3,8.11,-14.75,-14.93,0,*7D
1536775679.4,42880,24.19,74820.8,8.11,-14.75,-14.93,0,*7B
1536775680.59,42881,24.19,74824.3,8.15,-14.89,-15.11,0,*76
1536775681.81,42882,24.19,74824.8,8.15,-15.01,-15.29,0,*7F
1536775683.04,42883,24.19,74824.3,8.11,-14.89,-15.11,0,*70
1536775684.23,42884,24.19,74822.8,8.15,-14.89,-15.15,0,*77
1536775685.5,42885,24.19,74822.8,8.11,-15.01,-15.21,0,*74
1536775686.71,42886,24.19,74822.8,8.15,-15.01,-15.15,0,*74
1536775687.93,42887,24.19,74826.0,8.15,-14.97,-15.25,0,*78
1536775689.14,42888,24.19,74826.0,8.15,-15.25,-15.49,0,*75
1536775690.37,42889,24.19,74826.8,8.11,-15.29,-15.49,0,*7C
1536775691.61,42890,24.19,74824.0,8.15,-15.21,-15.43,0,*72
1536775692.87,42891,24.19,74822.8,8.11,-15.29,-15.43,0,*7F
1536775694.09,42892,24.19,74824.8,8.15,-15.15,-15.35,0,*76
1536775695.29,42893,24.19,74824.0,8.15,-15.11,-15.25,0,*72
1536775696.52,42894,24.19,74824.3,8.15,-15.25,-15.39,0,*7F
1536775697.72,42895,24.19,74824.8,8.15,-15.29,-15.49,0,*75
1536775698.95,42896,24.19,74826.5,8.15,-15.25,-15.43,0,*70
1536775700.17,42897,24.19,74824.8,8.15,-15.01,-15.29,0,*7B
1536775701.39,42898,24.19,74824.0,8.15,-15.15,-15.39,0,*70